Powrót do katalogu

CZ-6A DEB

AktywnyPO
NORAD 60674·DEBRIS·🇨🇳 China

Wystrzelony Aug 6, 2024 z Taiyuan Satellite Launch Center

Loading…

Następne Przeloty (najbliższe 24 godziny)

TLE

ŚwieżeSource: Space-Track

Epoka: Sep 14, 2026, 10:36 UTC

1 60674U 24140CB  26257.44177902  .00000480  00000-0  83084-4 0  9999
2 60674  89.0032 259.3842 0142813 289.2189  69.3617 14.60256864111779

Śledź CZ-6A DEB w czasie rzeczywistym z AllMySat

Download on the App Store